• en France
  • Liste des pays
  • À 7 jours
  • Température de l'eau
  • Carte satellitaire
  • Carte météo
  • Widgets météo
  • user-avatar
    Se connecter

    Météo par heure à Santiago del Estero

    Ce jour, 22 Septembre, Samedi

    Heure Température Précipitation Vent Pression Humidité
    00:00 +29°C° 0 mm 4 m/s 736 mmHg 57%
    01:00 +29°C° 0 mm 4 m/s 736 mmHg 59%
    02:00 +28°C° 0 mm 4 m/s 735 mmHg 60%
    03:00 +28°C° 0 mm 4 m/s 735 mmHg 61%
    04:00 +28°C° 0 mm 4 m/s 735 mmHg 62%
    05:00 +27°C° 0 mm 4 m/s 735 mmHg 63%
    06:00 +29°C° 0 mm 5 m/s 735 mmHg 59%
    07:00 +30°C° 0 mm 5 m/s 735 mmHg 56%
    08:00 +32°C° 0 mm 6 m/s 735 mmHg 52%
    09:00 +34°C° 0 mm 6 m/s 735 mmHg 46%
    10:00 +36°C° 0 mm 6 m/s 735 mmHg 41%
    11:00 +39°C° 0 mm 6 m/s 735 mmHg 35%
    12:00 +40°C° 0 mm 6 m/s 734 mmHg 32%
    13:00 +42°C° 0 mm 6 m/s 734 mmHg 29%
    14:00 +44°C° 0 mm 6 m/s 733 mmHg 26%
    15:00 +43°C° 0 mm 5 m/s 732 mmHg 26%
    16:00 +43°C° 0 mm 5 m/s 732 mmHg 26%
    17:00 +43°C° 0 mm 4 m/s 732 mmHg 25%
    18:00 +41°C° 0 mm 4 m/s 732 mmHg 28%
    19:00 +38°C° 0 mm 3 m/s 732 mmHg 32%
    20:00 +36°C° 0 mm 3 m/s 733 mmHg 35%
    21:00 +35°C° 0 mm 2 m/s 733 mmHg 36%
    22:00 +34°C° 0 mm 2 m/s 733 mmHg 37%
    23:00 +34°C° 0 mm 2 m/s 733 mmHg 39%

    Demain, 23 Septembre, Dimanche

    Heure Température Précipitation Vent Pression Humidité
    00:00 +32°C° 0 mm 2 m/s 733 mmHg 40%
    01:00 +31°C° 0 mm 2 m/s 732 mmHg 41%
    02:00 +31°C° 0 mm 2 m/s 732 mmHg 42%
    03:00 +30°C° 0 mm 2 m/s 732 mmHg 43%
    04:00 +30°C° 0 mm 2 m/s 732 mmHg 44%
    05:00 +29°C° 0 mm 2 m/s 732 mmHg 45%
    06:00 +30°C° 0 mm 3 m/s 733 mmHg 43%
    07:00 +31°C° 0 mm 3 m/s 734 mmHg 42%
    08:00 +33°C° 0 mm 3 m/s 734 mmHg 40%
    09:00 +35°C° 0 mm 3 m/s 735 mmHg 37%
    10:00 +37°C° 0 mm 3 m/s 735 mmHg 33%
    11:00 +39°C° 0 mm 3 m/s 735 mmHg 29%
    12:00 +40°C° 0 mm 3 m/s 735 mmHg 28%
    13:00 +42°C° 0 mm 3 m/s 734 mmHg 27%
    14:00 +43°C° 0 mm 4 m/s 734 mmHg 26%
    15:00 +42°C° 0 mm 5 m/s 734 mmHg 30%
    16:00 +40°C° 0 mm 6 m/s 734 mmHg 34%
    17:00 +39°C° 0 mm 7 m/s 734 mmHg 37%
    18:00 +37°C° 0.1 mm 8 m/s 735 mmHg 40%
    19:00 +34°C° 0.1 mm 8 m/s 736 mmHg 43%
    20:00 +32°C° 0.1 mm 8 m/s 737 mmHg 46%
    21:00 +31°C° 1.4 mm 8 m/s 738 mmHg 54%
    22:00 +28°C° 1.4 mm 8 m/s 739 mmHg 62%
    23:00 +26°C° 1.4 mm 8 m/s 740 mmHg 71%

    Après-demain, 24 Septembre, Lundi

    Heure Température Précipitation Vent Pression Humidité
    00:00 +24°C° 3.1 mm 7 m/s 740 mmHg 74%
    01:00 +23°C° 3.1 mm 7 m/s 741 mmHg 78%
    02:00 +22°C° 3.1 mm 6 m/s 741 mmHg 82%
    03:00 +21°C° 0.2 mm 6 m/s 741 mmHg 79%
    04:00 +20°C° 0.2 mm 7 m/s 741 mmHg 77%
    05:00 +20°C° 0.2 mm 7 m/s 742 mmHg 75%
    06:00 +18°C° 0 mm 7 m/s 742 mmHg 72%
    07:00 +19°C° 0 mm 6 m/s 743 mmHg 69%
    08:00 +17°C° 0 mm 6 m/s 744 mmHg 67%
    09:00 +19°C° 0 mm 6 m/s 744 mmHg 63%
    10:00 +20°C° 0 mm 5 m/s 744 mmHg 59%
    11:00 +21°C° 0 mm 4 m/s 745 mmHg 55%
    12:00 +22°C° 0 mm 4 m/s 744 mmHg 52%
    13:00 +23°C° 0 mm 4 m/s 743 mmHg 49%
    14:00 +25°C° 0 mm 4 m/s 742 mmHg 46%
    15:00 +26°C° 0 mm 4 m/s 742 mmHg 46%
    16:00 +26°C° 0 mm 4 m/s 741 mmHg 46%
    17:00 +27°C° 0 mm 4 m/s 741 mmHg 45%
    18:00 +25°C° 0 mm 3 m/s 741 mmHg 49%
    19:00 +24°C° 0 mm 2 m/s 742 mmHg 53%
    20:00 +23°C° 0 mm 2 m/s 742 mmHg 57%
    21:00 +23°C° 0 mm 2 m/s 742 mmHg 59%
    22:00 +23°C° 0 mm 2 m/s 742 mmHg 61%
    23:00 +21°C° 0 mm 2 m/s 742 mmHg 62%

    25 Septembre, Mardi

    Heure Température Précipitation Vent Pression Humidité
    00:00 +21°C° 0 mm 2 m/s 742 mmHg 64%
    01:00 +20°C° 0 mm 2 m/s 742 mmHg 67%
    02:00 +20°C° 0 mm 2 m/s 741 mmHg 69%
    03:00 +20°C° 0 mm 2 m/s 741 mmHg 71%
    04:00 +19°C° 0 mm 2 m/s 740 mmHg 74%
    05:00 +19°C° 0 mm 2 m/s 740 mmHg 76%
    06:00 +20°C° 0 mm 3 m/s 740 mmHg 73%
    07:00 +20°C° 0 mm 3 m/s 741 mmHg 70%
    08:00 +21°C° 0 mm 3 m/s 741 mmHg 67%
    09:00 +22°C° 0 mm 3 m/s 741 mmHg 63%
    10:00 +25°C° 0 mm 3 m/s 741 mmHg 59%
    11:00 +26°C° 0 mm 3 m/s 740 mmHg 54%
    12:00 +27°C° 0 mm 3 m/s 740 mmHg 52%
    13:00 +29°C° 0 mm 3 m/s 739 mmHg 49%
    14:00 +30°C° 0 mm 3 m/s 738 mmHg 46%
    15:00 +30°C° 0 mm 3 m/s 738 mmHg 47%
    16:00 +30°C° 0 mm 3 m/s 738 mmHg 48%
    17:00 +29°C° 0 mm 3 m/s 737 mmHg 49%
    18:00 +28°C° 0 mm 3 m/s 738 mmHg 55%
    19:00 +27°C° 0 mm 3 m/s 738 mmHg 60%
    20:00 +26°C° 0 mm 2 m/s 739 mmHg 66%
    21:00 +25°C° 0 mm 2 m/s 739 mmHg 70%
    22:00 +24°C° 0 mm 2 m/s 739 mmHg 74%
    23:00 +24°C° 0 mm 2 m/s 739 mmHg 79%

    26 Septembre, Mercredi

    Heure Température Précipitation Vent Pression Humidité
    00:00 +23°C° 0 mm 2 m/s 739 mmHg 82%
    01:00 +23°C° 0 mm 2 m/s 739 mmHg 85%
    02:00 +21°C° 0 mm 2 m/s 739 mmHg 88%
    03:00 +21°C° 0 mm 3 m/s 739 mmHg 88%
    04:00 +20°C° 0 mm 3 m/s 739 mmHg 89%
    05:00 +20°C° 0 mm 3 m/s 739 mmHg 89%
    06:00 +20°C° 0 mm 3 m/s 739 mmHg 87%
    07:00 +21°C° 0 mm 3 m/s 740 mmHg 85%
    08:00 +21°C° 0 mm 3 m/s 740 mmHg 82%
    09:00 +22°C° 0 mm 3 m/s 740 mmHg 78%
    10:00 +24°C° 0 mm 3 m/s 740 mmHg 73%
    11:00 +25°C° 0 mm 3 m/s 740 mmHg 69%
    12:00 +26°C° 0 mm 3 m/s 740 mmHg 65%
    13:00 +27°C° 0 mm 3 m/s 739 mmHg 61%
    14:00 +28°C° 0 mm 3 m/s 739 mmHg 57%
    15:00 +28°C° 0 mm 4 m/s 739 mmHg 59%
    16:00 +27°C° 0 mm 4 m/s 738 mmHg 61%
    17:00 +27°C° 0 mm 4 m/s 738 mmHg 63%
    18:00 +26°C° 0 mm 3 m/s 739 mmHg 67%
    19:00 +25°C° 0 mm 3 m/s 739 mmHg 72%
    20:00 +24°C° 0 mm 2 m/s 740 mmHg 76%
    21:00 +24°C° 0.1 mm 3 m/s 741 mmHg 77%
    22:00 +24°C° 0.1 mm 3 m/s 741 mmHg 78%
    23:00 +22°C° 0.1 mm 4 m/s 742 mmHg 80%

    27 Septembre, Jeudi

    Heure Température Précipitation Vent Pression Humidité
    00:00 +22°C° 0 mm 4 m/s 741 mmHg 81%
    01:00 +21°C° 0 mm 4 m/s 741 mmHg 81%
    02:00 +21°C° 0 mm 4 m/s 741 mmHg 82%
    03:00 +20°C° 0 mm 4 m/s 742 mmHg 83%
    04:00 +20°C° 0 mm 4 m/s 742 mmHg 83%
    05:00 +19°C° 0 mm 4 m/s 742 mmHg 84%
    06:00 +20°C° 0.1 mm 4 m/s 743 mmHg 83%
    07:00 +20°C° 0.1 mm 4 m/s 743 mmHg 82%
    08:00 +20°C° 0.1 mm 3 m/s 744 mmHg 81%
    09:00 +21°C° 0 mm 3 m/s 744 mmHg 79%
    10:00 +21°C° 0 mm 3 m/s 744 mmHg 77%
    11:00 +22°C° 0 mm 3 m/s 744 mmHg 75%
    12:00 +24°C° 0 mm 3 m/s 744 mmHg 69%
    13:00 +26°C° 0 mm 3 m/s 743 mmHg 63%
    14:00 +27°C° 0 mm 3 m/s 743 mmHg 57%
    15:00 +27°C° 0 mm 4 m/s 742 mmHg 58%
    16:00 +26°C° 0 mm 4 m/s 742 mmHg 59%
    17:00 +26°C° 0 mm 4 m/s 742 mmHg 61%
    18:00 +25°C° 0 mm 4 m/s 742 mmHg 65%
    19:00 +23°C° 0 mm 4 m/s 742 mmHg 69%
    20:00 +22°C° 0 mm 4 m/s 743 mmHg 74%
    21:00 +21°C° 0 mm 4 m/s 743 mmHg 77%
    22:00 +21°C° 0 mm 4 m/s 743 mmHg 80%
    23:00 +20°C° 0 mm 4 m/s 743 mmHg 83%
    Voir plus